Regional Weather Roundup
Issued by NWS

Home | Current Version | Previous Version | Text Only | Print | Product List | Glossary Off
Versions: 1 2 3 4 5 6 7 8 9 10 11 12 13 14 15 16 17 18 19 20 21 22 23 24 25 26 27 28 29 30 31 32 33 34 35 36 37 38 39 40 41 42 43 44 45 46 47 48 49 50

000
ASUS43 KBIS 120002
RWRND

NORTH DAKOTA REGIONAL WEATHER ROUNDUP
NATIONAL WEATHER SERVICE BISMARCK ND
600 PM CST MON DEC 11 2017

NOTE: "FAIR" INDICATES FEW OR NO CLOUDS BELOW 12,000 FEET WITH NO
SIGNIFICANT WEATHER AND/OR OBSTRUCTIONS TO VISIBILITY.


NDZ001>003-009>011-017-120100-
NORTHWEST NORTH DAKOTA

CITY           SKY/WX    TMP DP  RH WIND       PRES   REMARKS
WILLISTON      CLOUDY    35  29  78 W6        30.35S
6HR MIN TEMP:  35; 6HR MAX TEMP:  38;

MINOT          CLEAR     26  19  74 W8        30.31S WCI  18
MINOT AFB      CLEAR     19  15  85 W7        30.30S WCI   9
$$

NDZ018>021-031>035-040>046-120100-
SOUTHWEST NORTH DAKOTA

CITY           SKY/WX    TMP DP  RH WIND       PRES   REMARKS
BISMARCK       PTCLDY    28  20  71 N5        30.34R
6HR MIN TEMP:  27; 6HR MAX TEMP:  38;

DICKINSON      CLOUDY    31  29  92 NW7       30.32R
GARRISON         N/A     21  17  84 NW10      30.31S WCI  10
6HR MIN TEMP:  21; 6HR MAX TEMP:  35;

HETTINGER ARPT CLOUDY    35  27  72 NW15      30.35S
$$

NDZ004>008-012>016-024-026-027-054-120100-
NORTHEAST NORTH DAKOTA

CITY           SKY/WX    TMP DP  RH WIND       PRES   REMARKS
GRAND FORKS    PTCLDY     8   5  87 N8        30.34R WCI  -4
GRND FRKS AFB  MOCLDY    11   4  76 N7        30.34R WCI   0
DEVILS LAKE    PTCLDY    16  12  84 NW6       30.30F WCI   7
$$

NDZ022-023-025-028>030-036>039-047>053-120100-
SOUTHEAST NORTH DAKOTA

CITY           SKY/WX    TMP DP  RH WIND       PRES   REMARKS
FARGO          CLEAR     14   8  77 N17       30.33R WCI  -3
6HR MIN TEMP:  14; 6HR MAX TEMP:  24; 6HR PCP: TRACE;

JAMESTOWN      CLEAR     17  14  88 NW8       30.31R WCI   7
$$





USA.gov is the U.S. government's official web portal to all federal, state and local government web resources and services.